Location: Mactaquac Provincial Park
(45.9573°N, 66.8897°W)
Time: 19:09:15
(UTC-03:00)

CENTAUR R/B - Visible Passes

Search period start: 31 October 2014 00:00
Search period end: 09 November 2014 23:00
Orbit: 893 x 1296 km, 63.5° (Epoch: 29 October)

Date Brightness Start Highest point End Pass type
(mag) Time Alt. Az. Time Alt. Az. Time Alt. Az.
31 Oct 3.0 19:14:08 10° SW 19:20:24 66° NW 19:27:22 10° NE visible
31 Oct 4.4 21:07:10 10° WNW 21:12:30 25° NNW 21:16:07 17° NNE visible
31 Oct 5.0 23:00:55 10° NW 23:03:18 17° NNW 23:03:18 17° NNW visible
01 Nov 4.1 20:18:00 10° W 20:23:43 31° NNW 20:29:29 12° NNE visible
01 Nov 4.7 22:12:03 10° NW 22:16:40 19° N 22:16:40 19° N visible
02 Nov 3.7 18:29:03 10° WSW 18:35:06 42° NW 18:41:46 10° NNE visible
02 Nov 4.6 20:22:55 10° WNW 20:27:51 20° N 20:30:00 18° NNE visible
02 Nov 5.2 22:15:49 10° NNW 22:17:11 14° NNW 22:17:11 14° NNW visible
03 Nov 3.2 17:40:25 10° SW 17:46:40 60° NW 17:53:36 10° NE visible
03 Nov 4.4 19:33:39 10° WNW 19:38:55 24° NNW 19:43:20 14° NNE visible
03 Nov 4.8 21:27:17 10° NW 21:30:31 18° N 21:30:31 18° N visible
04 Nov 4.2 18:44:27 10° W 18:50:05 29° NNW 18:56:13 10° NNE visible
04 Nov 4.6 20:38:28 10° NW 20:43:19 19° N 20:43:50 19° N visible
04 Nov 5.3 22:30:22 10° NNW 22:31:01 12° NNW 22:31:01 12° NNW visible
05 Nov 3.8 17:55:27 10° WSW 18:01:26 39° NW 18:08:00 10° NNE visible
05 Nov 4.6 19:49:24 10° NW 19:54:17 20° N 19:57:08 16° NNE visible
05 Nov 4.9 21:42:06 10° NNW 21:44:19 17° NNW 21:44:19 17° NNW visible
06 Nov 4.4 19:00:09 10° WNW 19:05:19 23° NNW 19:10:27 11° NNE visible
06 Nov 4.6 20:53:37 10° NW 20:57:37 20° N 20:57:37 20° N visible
06 Nov 5.5 22:44:44 10° NNW 22:44:48 10° NNW 22:44:48 10° NNW visible
07 Nov 4.2 18:10:55 10° W 18:16:28 28° NNW 18:22:29 10° NNE visible
07 Nov 4.5 20:04:53 10° NW 20:09:45 19° N 20:10:56 19° NNE visible
07 Nov 5.1 21:56:36 10° NNW 21:58:06 16° NNW 21:58:06 16° NNW visible
08 Nov 4.5 19:15:52 10° NW 19:20:43 20° N 19:24:14 14° NNE visible
08 Nov 4.7 21:08:21 10° NNW 21:11:25 20° N 21:11:25 20° N visible
09 Nov 4.4 18:26:38 10° WNW 18:31:44 22° NNW 18:37:10 10° NNE visible
09 Nov 4.5 20:19:56 10° NW 20:24:43 21° N 20:24:43 21° N visible
09 Nov 5.2 22:10:56 10° NNW 22:11:54 14° NNW 22:11:54 14° NNW visible
